User: anonymous   Login
Location: Caltech
(34.1382°N, 118.1253°W)
Time: 10:49:24
(UTC-07:00)
Language:

Sapphire - Orbit

View from above orbital plane
View from above orbital plane
View from above satellite
View from above satellite

Ground track
Ground track

The orbit data is extracted from the following two-line orbital elements,

1 26932U 01043D   16119.32424956  .00000000  00000-0  32088-4 0  9998
2 26932  67.0556  83.3125 0009162 265.9594  94.0460 14.30208143761040
Epoch (UTC): 28 April 2016 07:46:55
Eccentricity: 0.0009162
inclination: 67.0556°
perigee height: 784 km
apogee height: 797 km
right ascension of ascending node: 83.3125°
argument of perigee: 265.9594°
revolutions per day: 14.30208143
mean anomaly at epoch: 94.0460°
orbit number at epoch: 76104

The dashed part of the orbit path shows where the satellite is in the earth's shadow,  

DLR